Weather History for Sheridan, WY

Change the Weather History Date:

Monday, November 26, 2012

  Actual Average Record
Temperature  
Mean Temperature 15 °F 28 °F  
Max Temperature 27 °F 40 °F 71 °F (1998)
Min Temperature 3 °F 15 °F -15 °F (1985)
Degree Days  
Heating Degree Days 50 37  
Month to date heating degree days 755 818  
Since 1 July heating degree days 1529 1726  
Cooling Degree Days 0 0  
Month to date cooling degree days 0 0  
Year to date cooling degree days 664 419  
Moisture  
Dew Point 11 °F    
Average Humidity 91    
Maximum Humidity 100    
Minimum Humidity 81    
Precipitation  
Precipitation 0.02 in 0.02 in 0.32 in (1995)
Month to date precipitation 1.09 0.63  
Year to date precipitation 9.03 13.52  
Sea Level Pressure  
Sea Level Pressure 30.26 in    
Wind  
Wind Speed 2 mph (West)    
Max Wind Speed 12 mph    
Max Gust Speed 12 mph    
Visibility 4 miles    
Events Fog , Snow    
T = Trace of Precipitation, MM = Missing Value Source: NWS Daily Summary

Daily Weather History Graph

Daily Weather History Graph

Search for Another Location

Airport:

Trip Planner

Search our weather history database for the weather conditions in past years. The results will help you decide how hot, cold, wet, or windy it might be!

Date:

Astronomy

Nov. 26, 2012 Rise Set
Actual Time 7:19 AM MST 4:30 PM MST
Civil Twilight 6:47 AM MST 5:03 PM MST
Nautical Twilight 6:11 AM MST 5:39 PM MST
Astronomical Twilight 5:35 AM MST 6:14 PM MST
Moon 3:26 PM MST (11/26) 5:30 AM MST (11/26)
Length of Visible Light 10h 16m
Length of Day
9h 10m
Waxing Gibbous, 97% of the Moon is Illuminated
Nov 26
Waxing Gibbous
Nov 28
Full
Dec 6
Last Quarter
Dec 13
New
Dec 19
First Quarter

Hourly Weather History & Observations

Time (MST) Temp. Windchill Dew Point Humidity Pressure Visibility Wind Dir Wind Speed Gust Speed Precip Events Conditions
12:03 AM 26.6 °F 17.5 °F 26.6 °F 100% 30.20 in 2.0 mi NW 9.2 mph - 0.00 in Snow Light Snow
12:22 AM 26.6 °F 17.5 °F 26.6 °F 100% 30.21 in 2.5 mi NW 9.2 mph - 0.01 in Snow Light Snow
12:30 AM 26.6 °F 17.5 °F 24.8 °F 93% 30.21 in 3.0 mi NW 9.2 mph - 0.01 in Snow Light Snow
12:53 AM 26.1 °F 16.8 °F 25.0 °F 96% 30.33 in 3.0 mi WNW 9.2 mph - 0.01 in Snow Light Snow
1:02 AM 26.6 °F 17.5 °F 24.8 °F 93% 30.22 in 2.0 mi WNW 9.2 mph - 0.00 in Snow Light Snow
1:26 AM 26.6 °F 17.5 °F 24.8 °F 93% 30.22 in 3.0 mi WNW 9.2 mph - 0.00 in Snow Light Snow
1:34 AM 26.6 °F 18.2 °F 24.8 °F 93% 30.22 in 2.5 mi WNW 8.1 mph - 0.00 in Snow Light Snow
1:53 AM 26.1 °F 17.6 °F 25.0 °F 96% 30.35 in 2.5 mi NW 8.1 mph - 0.00 in Snow Light Snow
2:26 AM 24.8 °F 19.1 °F 24.8 °F 100% 30.25 in 4.0 mi NW 4.6 mph - 0.01 in Snow Light Snow
2:34 AM 24.8 °F 17.9 °F 23.0 °F 93% 30.25 in 6.0 mi WNW 5.8 mph - 0.01 in Snow Light Snow
2:43 AM 24.8 °F 20.5 °F 21.2 °F 86% 30.25 in 9.0 mi West 3.5 mph - 0.01 in Snow Light Snow
2:53 AM 23.0 °F 18.4 °F 21.9 °F 96% 30.38 in 10.0 mi West 3.5 mph - 0.01 in   Overcast
3:18 AM 23.0 °F 18.4 °F 21.2 °F 93% 30.25 in 10.0 mi SSW 3.5 mph - N/A   Overcast
3:53 AM 16.0 °F - 15.1 °F 96% 30.40 in 10.0 mi Calm Calm - N/A   Partly Cloudy
4:38 AM 19.4 °F 10.4 °F 17.6 °F 93% 30.27 in 10.0 mi WSW 6.9 mph - N/A   Mostly Cloudy
4:53 AM 21.9 °F 12.5 °F 21.0 °F 96% 30.40 in 10.0 mi West 8.1 mph - N/A   Overcast
5:13 AM 17.6 °F 7.3 °F 15.8 °F 93% 30.26 in 10.0 mi WSW 8.1 mph - N/A   Scattered Clouds
5:53 AM 14.0 °F 8.2 °F 12.9 °F 95% 30.43 in 10.0 mi SSE 3.5 mph - N/A   Clear
6:16 AM 15.8 °F - 12.2 °F 86% 30.28 in 2.0 mi Calm Calm - N/A   Clear
6:33 AM 10.4 °F 2.2 °F 10.4 °F 100% 30.28 in 1.2 mi West 4.6 mph - N/A   Clear
6:43 AM 10.4 °F - 10.4 °F 100% 30.28 in 1.0 mi Calm Calm - N/A   Mist
6:46 AM 10.4 °F 4.0 °F 8.6 °F 92% 30.28 in 0.5 mi NW 3.5 mph - N/A Fog Light Freezing Fog
6:53 AM 10.9 °F - 10.0 °F 96% 30.45 in 0.2 mi Calm Calm - N/A Fog Light Freezing Fog
7:53 AM 7.0 °F - 6.1 °F 96% 30.46 in 0.2 mi Calm Calm - N/A Fog Light Freezing Fog
8:04 AM 10.4 °F 4.0 °F 8.6 °F 92% 30.29 in 0.8 mi South 3.5 mph - N/A   Mist
8:13 AM 6.8 °F -0.1 °F 6.8 °F 100% 30.28 in 0.5 mi SSW 3.5 mph - N/A Fog Light Freezing Fog
8:17 AM 8.6 °F 2.0 °F 6.8 °F 92% 30.28 in 0.8 mi SSW 3.5 mph - N/A   Clear
8:22 AM 8.6 °F 2.0 °F 8.6 °F 100% 30.28 in 2.5 mi SW 3.5 mph - N/A   Clear
8:27 AM 10.4 °F 4.0 °F 8.6 °F 92% 30.28 in 0.8 mi SSW 3.5 mph - N/A   Clear
8:36 AM 14.0 °F - 12.2 °F 93% 30.27 in 2.0 mi Calm Calm - N/A   Clear
8:43 AM 12.2 °F - 10.4 °F 92% 30.27 in 1.0 mi Calm Calm - N/A   Clear
8:53 AM 15.1 °F - 14.0 °F 95% 30.44 in 3.0 mi Calm Calm - N/A   Clear
9:53 AM 18.0 °F - 15.1 °F 88% 30.43 in 10.0 mi Calm Calm - N/A   Clear
10:53 AM 19.9 °F - 17.1 °F 89% 30.41 in 10.0 mi Calm Calm - N/A   Clear
11:53 AM 21.0 °F - 17.1 °F 85% 30.38 in 10.0 mi Calm Calm - N/A   Clear
12:53 PM 25.0 °F - 19.0 °F 78% 30.34 in 10.0 mi Calm Calm - N/A   Clear
1:53 PM 25.0 °F 17.1 °F 21.0 °F 85% 30.30 in 10.0 mi SSE 6.9 mph - N/A   Clear
2:53 PM 23.0 °F 18.4 °F 19.0 °F 85% 30.30 in 10.0 mi SSE 3.5 mph - N/A   Clear
3:53 PM 18.0 °F - 16.0 °F 92% 30.34 in 10.0 mi Calm Calm - N/A   Clear
4:53 PM 18.0 °F - 16.0 °F 92% 30.31 in 10.0 mi Calm Calm - N/A   Clear
5:53 PM 10.0 °F 3.6 °F 9.0 °F 95% 30.35 in 10.0 mi West 3.5 mph - N/A   Clear
6:53 PM 10.9 °F - 10.0 °F 96% 30.35 in 10.0 mi Calm Calm - N/A   Clear
7:53 PM 6.1 °F - 5.0 °F 95% 30.37 in 7.0 mi Calm Calm - N/A   Clear
8:10 PM 5.0 °F - 3.2 °F 92% 30.13 in 1.2 mi Calm Calm - N/A   Clear
8:12 PM 5.0 °F -2.1 °F 3.2 °F 92% 30.13 in 0.8 mi North 3.5 mph - N/A   Mist
8:15 PM 5.0 °F -2.1 °F 3.2 °F 92% 30.12 in 0.2 mi North 3.5 mph - N/A Fog Light Freezing Fog
8:33 PM 5.0 °F - 1.4 °F 85% 30.12 in 0.8 mi Calm Calm - N/A   Mist
8:38 PM 3.2 °F - 1.4 °F 92% 30.12 in 2.0 mi Calm Calm - N/A   Overcast
8:46 PM 6.8 °F - 3.2 °F 85% 30.12 in 1.2 mi Calm Calm - N/A   Overcast
8:53 PM 6.1 °F - 3.9 °F 91% 30.34 in 0.8 mi Calm Calm - N/A   Mist
8:58 PM 6.8 °F - 3.2 °F 85% 30.12 in 0.2 mi Calm Calm - N/A Fog Light Freezing Fog
9:29 PM 3.2 °F - 1.4 °F 92% 30.11 in 0.5 mi Calm Calm - N/A Fog Light Freezing Fog
9:37 PM 3.2 °F - 1.4 °F 92% 30.11 in 0.8 mi Calm Calm - N/A   Clear
9:53 PM 3.9 °F - 1.9 °F 91% 30.33 in 0.5 mi Calm Calm - N/A Fog Light Freezing Fog
10:09 PM 3.2 °F -4.2 °F -0.4 °F 85% 30.10 in 1.0 mi SSW 3.5 mph - N/A   Clear
10:12 PM 3.2 °F -4.2 °F 1.4 °F 92% 30.11 in 3.0 mi SSW 3.5 mph - N/A   Clear
10:20 PM 5.0 °F - 3.2 °F 92% 30.11 in 10.0 mi Calm Calm - N/A   Scattered Clouds
10:26 PM 6.8 °F - 3.2 °F 85% 30.10 in 1.8 mi Calm Calm - N/A   Mostly Cloudy
10:37 PM 5.0 °F - 1.4 °F 85% 30.10 in 2.5 mi Calm Calm - N/A   Scattered Clouds
10:44 PM 5.0 °F - 3.2 °F 92% 30.10 in 8.0 mi Calm Calm - N/A   Mostly Cloudy
10:53 PM 3.9 °F - 3.0 °F 96% 30.31 in 5.0 mi Calm Calm - N/A   Scattered Clouds
10:56 PM 3.2 °F - 1.4 °F 92% 30.10 in 1.5 mi Calm Calm - N/A   Scattered Clouds
11:00 PM 3.2 °F - 1.4 °F 92% 30.10 in 0.5 mi Calm Calm - N/A Fog Light Freezing Fog
11:08 PM 3.2 °F - 3.2 °F 100% 30.09 in 0.2 mi Calm Calm - N/A Fog Light Freezing Fog
11:45 PM 5.0 °F - 3.2 °F 92% 30.09 in 0.5 mi Calm Calm - N/A Fog Light Freezing Fog
11:53 PM 3.9 °F - 1.0 °F 88% 30.29 in 0.5 mi Calm Calm - N/A Fog Light Freezing Fog